Weather in Safonovo

Russia / Arkhangel'skaya Oblast'     65°40′18″N   47°41′19″E
В апреле 2022 года жителям России запретили посещать сайт meteo.paraplan.net по решению Генеральной прокуратуры. Аудитория сайта уменьшилась в 10 раз. Владельцы сайта не видят смысла в поддержке погодного сервера в таких условиях. Сайт будет закрыт в октябре.
temp.,
°C
wind,
m/s
gust,
m/s
humid.,
%
clouds,
%
prec.,
mm/h
press.,
hPa
HPBL,
m
4 october, tue
tue400:000se1192100 0.0 102010
03:00+1e2292100 0.0 102042
06:00+1e2894100 0.0 1021149
09:00+4ese31187100 0.1 1020383
12:00+4ese41292100 0.8 1019459
15:00+5ese41094100 1.9 1019443
18:00+5se3996100 0.1 1020328
21:00+5ese2699100 0.1 1020146
5 october, wed
wed500:00+4se2597100 0.0 1020109
03:00+5se2597100 0.0 1019114
06:00+5se269783 0.0 1018123
09:00+7sse2795100 0.0 1018244
12:00+10s368570 0.0 1017529
15:00+10sse2585100 0.0 1016464
18:00+7sse249765 0.0 1017110
21:00+7sse259856 0.0 1016166
6 october, thu
thu600:00+7sse2290100 0.0 101651
03:00+6sse2398100 0.0 1015107
06:00+6sse2499100 0.0 1014151
09:00+7s2795100 0.1 1013317
12:00+7s3891100 0.0 1012417
15:00+7sse3990100 0.0 1010477
18:00+7s4119387 0.0 1008527
21:00+7s51290100 0.0 1005785
7 october, fri
fri700:00+8s51383100 0.0 10021047
03:00+7s51286100 0.5 999978
06:00+7ssw51092100 4.1 9971104
09:00+6ssw3994100 6.5 996636
12:00+6sw2796100 0.9 995477
15:00+7w2697100 2.3 996435
18:00+6w3892100 0.1 998406
21:00+6sw3889100 0.3 999268
8 october, sat
sat800:00+6wsw4109188 0.1 1001605
03:00+5wsw3990100 0.1 1002494
06:00+5wsw3891100 0.0 1004710
09:00+6wsw389393 0.0 1006487
12:00+7sw477996 0.0 1006703
15:00+7sw5880100 0.1 1006883
18:00+6s41087100 0.0 1005522
21:00+7s41193100 0.4 1004607